SBMT

Details ICAO SBMT
Name Campo de Marte
Region Brazil
Timezone America/Sao_Paulo (UTC-3.0)
Plans Departing 372
Arriving 188
Stats Elevation 2,369 ft / 722 m (AMSL)
Location -23.509100° -46.637700°
Runways 1
Magnetic Variation 21.595° W
Sunrise 2020-02-16 08:56:14 UTC / 2020-02-16 05:56:14 Local
Sunset 2020-02-16 21:47:57 UTC / 2020-02-16 18:47:57 Local
Advertisement - Login to hide

Runways

ID Width Length Bearing (true/mag) Surface Threshold Overrun Markings Lighting
12 148 ft / 45 m 5,236 ft / 1,596 m 100.29° / 121.89° ASPHALT 978 ft / 298 m 0 ft / 0 m VISUAL EDGE THRESHOLD
30 148 ft / 45 m 5,236 ft / 1,596 m 280.29° / 301.88° ASPHALT 489 ft / 149 m 0 ft / 0 m VISUAL EDGE THRESHOLD

Map

Weather


0- 5 10 15 20 25 30 35+ Temperature / °C

Clouds and Precipitation
Forecast for 2020-02-17 00:00 UTC. Updated 3 hours ago

Ground ~20,000 ft ~40,000 ft Winds

METAR

SBMT 170000Z 11005KT 6000 BKN012 23/21 Q1017

TAF

Not found

Frequencies

Tower 133.35 MHz Campo de Marte Tower
Approach 121.50 MHz Sao Paulo Approach
Recorded 127.72 MHz Campo de Marte ATIS
Ground 121.60 MHz Campo de Marte Ground
Unicom 122.80 MHz Campo de Marte Unicom
Approach 123.90 MHz Sao Paulo Approach
Approach 129.50 MHz Sao Paulo Approach
Warning: Do not use this data for real-world aviation or navigation. No guarantee of current accuracy is given.